Weather History for Lancaster, CA

Change the Weather History Date:

Monday, June 17, 2013

  Actual Average Record
Temperature  
Mean Temperature 81 °F 76 °F  
Max Temperature 95 °F 91 °F 105 °F (1961)
Min Temperature 66 °F 62 °F 46 °F (1995)
Degree Days  
Heating Degree Days 0    
Month to date heating degree days 0  
Since 1 June heating degree days 0  
Since 1 July heating degree days 2717  
Cooling Degree Days 16    
Month to date cooling degree days 251  
Year to date cooling degree days 509  
Since 1 June cooling degree days 251  
Growing Degree Days 30 (Base 50)    
Moisture  
Dew Point 32 °F    
Average Humidity 20    
Maximum Humidity 32    
Minimum Humidity 8    
Precipitation  
Precipitation 0.00 in 0.01 in 0.00 in (2014)
Month to date precipitation 0.00 0.04  
Year to date precipitation 1.10 4.90  
Since 1 July precipitation 1.26 7.37  
Snow  
Snow 0.00 in - 0.00 in ()
Month to date snowfall 0.0  
Since 1 June snowfall 0.0  
Since 1 July snowfall 0.0  
Snow Depth -    
Sea Level Pressure  
Sea Level Pressure 29.91 in    
Wind  
Wind Speed 21 mph (West)    
Max Wind Speed 35 mph    
Max Gust Speed 39 mph    
Visibility 10 miles    
Events      
T = Trace of Precipitation, MM = Missing Value Source: NWS Daily Summary

Daily Weather History Graph

Daily Weather History Graph

Search for Another Location

Airport:

Trip Planner

Search our weather history database for the weather conditions in past years. The results will help you decide how hot, cold, wet, or windy it might be!

Date:

Astronomy

Jun. 17, 2013 Rise Set
Actual Time 5:39 AM PDT 8:08 PM PDT
Civil Twilight 5:09 AM PDT 8:38 PM PDT
Nautical Twilight 4:33 AM PDT 9:14 PM PDT
Astronomical Twilight 3:53 AM PDT 9:54 PM PDT
Moon 2:03 PM PDT (6/17) 1:04 AM PDT (6/17)
Length of Visible Light 15h 28m
Length of Day
14h 29m
First Quarter, 61% of the Moon is Illuminated
Jun 17
First Quarter
Jun 23
Full
Jun 29
Last Quarter
Jul 8
New
Jul 15
First Quarter

Hourly Weather History & Observations

Time (PDT) Temp. Dew Point Humidity Pressure Visibility Wind Dir Wind Speed Gust Speed Precip Events Conditions
12:56 AM 73.9 °F 37.0 °F 26% 29.92 in 10.0 mi West 26.5 mph 32.2 mph N/A   Clear
1:56 AM 71.1 °F 36.0 °F 28% 29.93 in 10.0 mi West 15.0 mph - N/A   Clear
2:56 AM 70.0 °F 37.9 °F 31% 29.92 in 10.0 mi West 25.3 mph 33.4 mph N/A   Clear
3:56 AM 68.0 °F 37.0 °F 32% 29.92 in 10.0 mi West 16.1 mph 26.5 mph N/A   Clear
4:56 AM 66.9 °F 34.0 °F 30% 29.93 in 10.0 mi West 17.3 mph 27.6 mph N/A   Clear
5:56 AM 66.9 °F 33.1 °F 28% 29.95 in 10.0 mi West 18.4 mph 31.1 mph N/A   Clear
6:56 AM 70.0 °F 33.1 °F 26% 29.95 in 10.0 mi West 20.7 mph 28.8 mph N/A   Clear
7:56 AM 75.0 °F 35.1 °F 23% 29.95 in 10.0 mi West 17.3 mph 25.3 mph N/A   Clear
8:56 AM 80.1 °F 34.0 °F 19% 29.96 in 10.0 mi West 20.7 mph 26.5 mph N/A   Clear
9:56 AM 84.9 °F 35.1 °F 17% 29.94 in 10.0 mi West 19.6 mph - N/A   Clear
10:56 AM 88.0 °F 34.0 °F 15% 29.93 in 10.0 mi West 19.6 mph 28.8 mph N/A   Clear
11:56 AM 91.0 °F 32.0 °F 12% 29.92 in 10.0 mi West 16.1 mph 23.0 mph N/A   Clear
12:56 PM 93.0 °F 30.0 °F 11% 29.91 in 10.0 mi West 23.0 mph 32.2 mph N/A   Clear
1:56 PM 93.9 °F 28.0 °F 10% 29.89 in 10.0 mi West 21.9 mph 33.4 mph N/A   Clear
2:56 PM 93.9 °F 26.1 °F 9% 29.88 in 10.0 mi West 21.9 mph 32.2 mph N/A   Clear
3:56 PM 93.0 °F 25.0 °F 9% 29.87 in 10.0 mi West 29.9 mph 38.0 mph N/A   Clear
4:56 PM 90.0 °F 25.0 °F 10% 29.86 in 10.0 mi West 29.9 mph 39.1 mph N/A   Clear
5:56 PM 87.1 °F 27.0 °F 11% 29.87 in 10.0 mi West 32.2 mph 38.0 mph N/A   Clear
6:56 PM 84.0 °F 30.9 °F 15% 29.88 in 10.0 mi West 24.2 mph 34.5 mph N/A   Clear
7:56 PM 79.0 °F 32.0 °F 18% 29.88 in 10.0 mi West 23.0 mph - N/A   Clear
8:56 PM 75.9 °F 30.9 °F 19% 29.88 in 10.0 mi West 20.7 mph - N/A   Clear
9:56 PM 75.0 °F 30.9 °F 20% 29.89 in 10.0 mi West 20.7 mph - N/A   Clear
10:56 PM 73.9 °F 35.1 °F 24% 29.90 in 10.0 mi West 15.0 mph - N/A   Clear
11:56 PM 73.0 °F 37.0 °F 27% 29.88 in 10.0 mi West 17.3 mph - N/A   Clear